RH
24 26 31 36 52 63 71 76 84 87 91 92 92 92 91 80 66 63 63 61 61 64 62 62 59 54 58 60 63 60 62 60
29 34 36 44 63 74 74 82 81 84 83 80 76 78 71 67 58 61 63 58 52 53 58 54 54 57 59 57 61 63 65 62
35 38 42 53 65 67 78 78 78 75 62 61 66 65 63 57 57 61 59 55 48 51 54 56 57 59 60 65 66 70 65 66
39 41 47 54 68 75 71 74 74 70 56 60 62 59 60 59 57 61 57 52 46 46 48 54 58 61 65 67 66 67 71 66
36 43 49 56 67 70 68 66 63 60 61 55 58 52 53 53 56 56 53 52 49 43 46 52 59 65 66 69 52 71 71 71
36 43 53 53 67 67 70 60 52 52 52 53 59 57 59 56 59 61 55 62 55 49 50 56 60 65 67 70 73 72 72 77
36 53 55 55 63 65 60 53 48 47 50 54 57 59 56 59 59 62 57 52 50 52 55 64 62 63 62 63 65 65 68 73
41 46 50 52 54 57 55 46 43 49 54 55 56 57 54 54 52 51 50 52 55 59 56 56 58 58 59 61 64 67 69 77
41 43 43 46 52 52 50 44 43 47 55 54 55 52 53 54 54 49 54 54 56 53 53 55 55 56 58 61 66 68 66 81
37 39 42 46 49 54 54 45 43 51 56 56 57 52 50 52 50 47 53 51 39 54 55 54 55 58 60 63 67 70 76 79
36 34 40 41 46 52 57 51 48 50 51 57 52 53 52 49 46 48 46 48 48 52 53 53 56 58 60 71 74 71 72 81
35 32 36 39 43 47 52 48 45 48 48 54 56 52 50 46 46 45 45 47 48 48 49 52 54 58 64 68 70 68 70 72
32 32 37 39 44 47 51 51 47 47 49 51 54 51 46 46 45 44 45 48 50 48 50 51 52 56 62 66 70 68 70 70
31 33 36 40 45 49 49 50 47 43 40 44 48 47 40 42 42 42 44 49 50 52 50 55 55 61 60 64 66 64 62 61
29 33 37 42 45 46 46 47 46 41 41 41 44 45 42 43 40 44 49 51 52 54 55 56 58 57 55 54 51 58 60 54
28 34 40 41 44 44 42 44 45 47 42 37 40 41 42 42 46 50 53 55 52 54 56 57 58 56 47 62 58 62 64 61
31 35 36 40 40 40 42 42 46 42 41 40 37 38 39 46 49 54 56 55 53 56 58 60 64 48 77 69 65 65 62 61
31 34 37 39 39 42 43 41 42 39 39 36 36 38 43 48 45 44 48 54 60 64 63 63 68 68 73 66 63 62 66 69
31 35 38 39 39 38 43 35 35 42 39 34 33 40 43 44 44 46 53 58 62 64 65 67 73 64 77 69 65 68 70 67
Wind_Speed
15 14 13 14 17 16 16 11 9 8 7 5 3 3 3 4 6 5 5 4 4 4 5 3 3 2 3 2 2 3 3 4
12 7 7 12 18 15 16 16 12 7 6 5 4 4 4 4 5 7 6 5 4 3 3 3 2 3 3 3 2 3 4 4
13 8 7 13 16 15 13 14 11 8 6 5 5 6 4 6 5 6 6 5 5 5 3 3 5 3 5 3 4 3 3 2
14 12 9 6 16 13 14 13 10 12 9 6 7 6 6 4 6 4 5 5 5 3 3 3 2 2 3 4 4 5 3 3
15 14 11 8 12 11 13 14 14 11 8 8 9 5 6 5 7 5 6 5 3 2 2 1 1 2 4 3 5 4 4 4
15 15 14 11 10 10 15 15 13 11 8 7 5 4 5 4 5 7 6 7 7 7 6 4 1 2 3 5 6 6 4 4
13 14 13 12 13 14 10 13 11 12 6 7 6 5 6 4 4 4 2 2 2 5 7 6 5 5 5 4 5 6 6 5
11 14 14 14 14 13 9 10 12 9 7 5 6 6 5 7 3 3 1 2 3 5 6 5 4 4 5 6 6 6 6 5
11 13 13 13 11 9 7 8 11 9 7 6 6 7 4 3 3 3 4 3 3 5 4 5 5 6 6 6 4 5 7 4
13 14 12 12 10 9 9 10 11 10 8 7 7 4 3 4 6 6 1 3 2 5 4 4 5 5 6 7 4 5 5 4
13 14 13 13 12 11 8 8 11 10 9 7 6 5 6 6 5 2 3 3 3 3 4 4 4 5 5 5 5 7 6 4
13 13 12 12 12 11 9 9 11 9 7 6 6 5 6 5 4 3 2 2 2 4 4 4 5 4 6 6 5 5 6 5
14 14 13 11 11 10 8 6 10 9 6 5 5 6 6 6 5 4 3 1 2 3 4 5 5 3 3 5 6 4 4 5
14 14 12 12 10 10 10 7 7 8 7 7 6 7 5 5 4 4 2 1 3 4 5 5 3 4 4 4 6 5 4 4
12 12 12 11 10 9 9 8 7 7 7 9 8 6 5 4 3 3 2 2 3 4 5 5 2 3 5 7 3 3 6 7
8 7 9 10 9 9 10 9 8 5 7 6 5 5 5 4 3 2 2 2 4 5 7 5 1 3 5 5 4 5 6 7
4 4 5 8 9 10 9 9 8 8 5 2 4 5 3 2 1 1 2 4 5 4 5 3 3 4 9 6 4 3 5 7
6 6 6 5 8 8 8 9 7 5 4 2 3 2 2 0 3 4 3 3 3 3 6 4 3 2 10 7 4 2 4 7
3 3 5 4 8 9 7 8 7 5 2 2 1 3 2 3 3 5 4 3 2 5 5 3 3 5 13 10 5 3 6 6
Wind_Direction
153 168 157 151 134 129 125 123 132 139 129 130 123 117 122 111 113 116 175 168 142 142 118 124 319 30 54 34 327 325 316 318
140 158 169 139 137 144 150 144 153 154 152 146 155 139 135 135 130 166 186 149 105 30 61 100 130 16 10 326 321 338 311 328
144 168 176 138 144 149 147 145 159 190 179 166 144 146 162 161 165 183 168 140 123 144 84 18 40 4 327 355 355 313 309 332
160 173 192 182 148 158 152 155 176 215 158 150 143 164 173 146 146 171 133 155 160 144 138 86 28 346 342 324 298 290 314 305
170 172 179 175 152 160 166 176 189 196 159 163 156 159 161 182 167 168 141 143 171 227 77 79 40 354 310 296 315 311 302 295
170 174 161 181 157 174 184 189 170 151 189 149 162 175 138 126 108 121 151 171 182 204 206 209 194 327 319 318 324 325 299 263
166 141 152 162 178 183 178 179 160 148 176 138 176 129 106 107 119 133 194 117 70 48 50 41 12 359 345 322 307 301 293 281
165 150 161 160 169 178 162 168 146 148 148 171 140 110 89 93 101 123 165 47 45 49 45 14 356 331 318 314 305 293 279 272
163 159 158 159 156 149 165 170 149 158 153 151 120 114 125 108 227 68 36 45 47 45 26 9 342 331 324 316 306 296 292 349
168 165 154 155 162 165 188 178 160 152 146 115 110 112 136 120 97 96 332 59 351 48 18 347 330 330 313 292 289 311 7 349
179 174 164 169 175 176 188 168 154 154 127 123 134 170 116 98 93 196 97 78 40 347 349 330 323 302 306 17 345 343 338 343
185 180 174 175 174 169 178 169 148 140 140 143 138 131 124 162 164 135 124 90 353 349 330 317 308 349 10 346 328 310 359 358
185 183 172 180 169 161 168 183 148 145 139 125 146 147 201 170 163 159 138 69 355 319 315 292 301 17 7 336 313 302 304 298
191 180 179 178 167 165 179 166 142 141 142 169 196 200 181 163 156 135 120 16 343 315 301 304 325 34 318 267 275 315 297 295
205 181 176 168 168 173 159 147 139 142 178 201 200 179 178 114 103 98 59 347 308 293 299 291 34 335 290 272 283 9 347 341
212 183 163 161 167 171 150 150 141 171 207 194 199 103 85 94 101 77 267 334 302 286 274 250 172 288 300 56 41 17 341 322
180 213 191 176 177 154 155 148 165 195 181 182 64 62 88 82 46 271 268 258 271 283 312 358 2 307 123 108 80 12 320 313
177 196 198 195 153 146 155 167 153 130 104 61 92 140 143 222 269 278 277 290 307 321 291 227 252 90 156 151 135 290 303 286
326 170 183 170 134 152 126 122 123 114 167 116 68 152 192 229 278 287 277 255 293 271 288 168 215 271 168 165 174 265 278 297